sat.trackr.live / text

‹ back to catalog

STARLINK-35637

NORAD 66130 · 2025-237S

PAYLOAD ACTIVE UNKNOWN

§ Identity

Operator
Country
US
Launch date
2025-10-22
Launch site
AFWTR
Launch vehicle
Mass (kg)
RCS (m²)

Purposes: comms

External: N2YO · Heavens-Above · Gunter

§ Orbital elements

Epoch: 2026-05-25T03:11:48.338304Z

Period
94.11 min
Inclination
53.1590°
Eccentricity
0.0001112
Mean motion
15.30199494 rev/d
Perigee alt
474.5 km
Apogee alt
476.0 km
Semi-major
6,853.4 km
B*
6.0412e-4
RAAN
44.6007°
Arg perigee
101.2517°
Mean anomaly
258.8609°
Rev number
3,431

§ Raw data

STARLINK-356371 66130U 25237S   26145.13319836  .00017575  00000+0  60412-3 0  99972 66130  53.1590  44.6007 0001112 101.2517 258.8609 15.30199494 34318

JSON: /api/v1/satellites/66130 · /tle

For live sub-satellite position, see the globe view (requires WebGL).

§ Visibility from observer

Set your observer location to see the next 7 days of passes ≥ 10°. The values pass through the URL so the page stays shareable.

No JS? Fill the form by hand. The geolocation button needs JavaScript.